Location: Campolattaro
(41.2833°N, 14.7333°E)
Time: 00:09:29
(UTC+00:00)

MOS 1-B - Pass Details

Date: 19 May 2025
Orbit: 903 x 912 km, 99.3° (Epoch: 22 June)

Event Time Altitude Azimuth Distance (km) Brightness Sun altitude
Exits shadow 19:16:29 - 156° (SSE) 2,688 6.3 -10.2°
Reaches altitude 10° 19:16:44 10° 156° (SSE) 2,592 6.2 -10.2°
Maximum altitude 19:22:30 72° 73° (ENE) 957 4.4 -11.1°
Drops below altitude 10° 19:28:17 10° 350° (N) 2,604 7.5 -11.9°
Sets 19:30:42 0° 348° (NNW) 3,549 8.4 -12.3°
